Theta_e
309 309 309 310 311 311 312 313 313 314 314 314 315 317 316 316 314 299 295 298 305 313 312 300 299 298 299 298 302 303 296 293 296 294 295 290 290 287 288 288 285 286 285 287 290
308 308 308 309 310 310 311 312 312 312 313 313 315 316 315 315 303 294 301 308 310 311 297 295 296 296 294 296 298 298 294 296 296 292 289 290 289 288 288 286 284 284 286 288 289
307 307 307 308 309 309 310 311 311 310 310 311 313 314 314 311 297 294 304 307 308 306 298 295 295 296 292 295 294 296 295 295 292 292 291 291 288 288 288 287 288 286 285 286 286
306 306 307 307 308 308 309 310 309 310 308 308 311 313 313 302 286 291 305 305 306 298 296 294 294 293 291 292 292 291 289 291 291 292 292 291 290 289 288 287 287 287 287 286 286
306 305 306 306 307 308 309 309 309 309 308 308 310 312 301 291 292 291 300 297 294 295 294 294 293 292 289 290 290 290 287 288 289 289 287 291 288 288 286 284 285 286 286 285 285
306 305 306 306 307 308 309 309 309 308 307 307 308 310 293 285 289 290 290 292 291 293 293 294 292 293 289 288 287 286 287 286 286 286 286 288 286 287 284 284 284 285 284 284 284
305 305 306 306 307 308 308 308 309 306 306 306 309 304 290 289 288 288 289 289 290 291 292 293 293 292 290 287 288 286 284 283 283 284 284 285 285 285 283 285 283 282 282 283 283
305 305 305 305 306 307 307 308 308 306 305 303 307 289 285 290 288 288 288 289 290 291 292 292 293 291 289 288 286 284 283 279 281 283 283 283 281 282 282 283 282 281 281 282 282
305 305 304 305 305 306 307 308 307 306 306 302 290 286 283 293 287 287 286 286 288 290 290 294 291 286 287 284 282 281 279 279 281 282 281 281 280 282 281 281 280 279 279 281 281
304 304 304 304 305 306 307 305 305 296 294 293 289 284 284 283 286 287 286 288 288 290 290 289 285 282 282 281 278 278 279 279 279 279 278 277 279 279 281 280 281 279 278 278 279
304 304 304 303 305 306 297 289 286 285 286 282 282 282 283 285 287 286 287 287 288 288 283 283 280 279 281 281 278 279 277 276 277 278 277 277 277 278 279 279 279 279 278 278 279
303 303 304 303 304 305 291 286 284 283 279 282 282 282 283 284 281 284 287 284 285 281 282 281 277 280 281 281 279 279 277 276 277 278 276 274 276 277 276 277 280 281 279 279 279
303 303 303 302 304 293 287 287 289 286 278 280 281 281 282 284 281 281 284 284 282 279 279 278 276 279 280 278 279 277 277 275 276 276 273 272 274 274 277 276 278 280 280 279 280
302 302 303 302 294 287 286 290 291 287 273 278 278 280 282 283 279 284 284 283 279 279 278 275 276 278 277 278 278 276 277 277 276 275 272 271 269 271 274 276 277 278 278 279 279
302 302 301 302 287 286 289 291 291 287 266 279 277 284 282 280 278 280 283 281 277 277 277 275 274 275 276 277 277 276 276 276 275 273 271 268 268 272 273 275 277 277 278 279 279
302 301 300 297 288 288 291 290 288 274 265 273 277 276 277 278 278 279 280 281 279 276 275 273 275 275 275 277 276 277 277 277 275 272 264 269 270 271 273 277 276 276 278 279 279
302 298 296 294 287 290 290 287 275 266 276 273 273 276 276 276 276 276 276 275 274 272 272 273 274 274 277 275 277 276 275 270 267 263 266 268 268 273 276 276 277 278 278 278 279
301 297 293 291 291 291 288 279 264 269 270 276 276 276 275 276 275 275 273 272 274 274 271 271 269 273 276 275 275 274 274 270 264 264 267 270 267 274 276 276 277 278 278 278 278
299 288 288 290 292 290 283 265 269 272 277 275 275 273 272 275 274 273 271 270 275 275 275 268 270 272 275 274 275 273 271 274 267 262 264 269 271 277 277 276 276 277 277 277 277
289 286 286 291 292 287 275 274 271 278 278 277 275 275 267 269 272 271 271 273 275 277 277 274 267 272 273 273 273 272 275 271 268 263 261 267 266 272 275 276 276 276 277 277 277
287 282 286 290 289 279 269 268 274 279 279 277 276 273 273 271 272 269 271 274 274 276 278 271 273 268 272 269 270 269 269 269 271 268 264 263 269 274 279 278 278 278 278 277 277
285 275 285 289 279 263 267 272 280 278 278 278 278 277 274 273 271 265 269 273 276 277 276 276 268 262 266 268 270 268 269 270 267 264 264 266 268 276 277 277 278 277 278 277 277
283 280 285 285 268 264 269 274 278 277 277 278 277 278 277 275 273 271 272 275 276 277 275 274 267 260 266 266 268 264 270 273 270 269 264 265 271 275 276 275 276 278 277 278 277
282 276 280 281 276 273 269 271 273 279 279 279 278 277 276 274 275 274 274 276 277 277 282 278 262 266 269 269 266 261 266 272 268 261 266 269 270 274 276 275 275 276 277 277 278
284 280 280 273 273 274 277 275 275 275 277 278 276 276 276 273 272 272 274 274 275 279 278 273 264 259 261 267 264 263 261 269 269 273 271 274 273 276 277 277 277 277 276 276 277
282 281 278 275 274 276 278 274 277 277 276 272 274 278 277 277 278 275 275 274 276 272 274 268 263 259 261 268 268 264 265 267 272 271 271 271 271 277 277 276 275 276 276 277 278
286 285 283 281 276 275 274 277 279 281 280 282 278 278 275 277 280 279 279 279 277 274 273 268 263 262 262 267 266 266 269 265 268 266 274 271 278 276 275 277 277 276 277 278 278
Wind_Speed
7 9 9 10 9 11 11 11 11 11 11 11 9 11 10 12 13 1 1 2 6 11 10 7 1 2 1 1 1 2 4 4 5 7 4 5 4 2 2 6 3 2 1 1 12
9 8 9 10 10 10 11 11 11 11 11 10 9 9 10 11 3 3 2 7 7 8 4 5 2 5 2 1 2 3 4 9 3 3 3 5 2 8 4 3 1 2 4 8 10
8 9 8 9 11 11 10 10 11 11 11 10 9 9 9 7 3 1 7 8 6 2 1 1 2 1 1 1 0 1 4 4 3 2 2 6 4 3 7 4 5 6 9 7 8
7 9 10 9 9 10 11 10 11 11 11 10 8 7 8 2 6 1 11 10 7 1 1 1 1 2 2 4 1 1 1 2 2 1 3 6 7 4 3 2 2 3 12 7 9
8 8 9 9 9 10 11 11 11 11 10 8 6 5 3 2 5 4 9 9 2 1 2 1 2 3 4 3 3 2 2 3 2 4 3 5 3 3 5 0 3 10 9 9 8
8 8 9 9 10 10 12 11 10 11 9 6 4 2 1 4 1 6 7 4 4 3 0 1 2 2 3 3 1 2 3 2 3 2 3 3 1 2 3 4 8 9 8 8 9
9 9 9 10 10 11 12 12 11 9 8 4 3 1 2 7 2 5 6 1 3 1 0 1 0 2 3 4 3 4 2 2 1 1 1 0 4 7 5 6 8 8 7 7 8
9 9 10 11 10 10 12 13 11 9 7 1 1 1 5 1 1 4 6 1 4 2 0 0 1 5 3 3 5 4 3 1 1 3 1 2 8 2 5 9 9 8 7 7 6
9 10 11 10 10 10 11 13 13 8 6 1 1 2 5 2 3 4 3 1 4 1 0 1 5 4 3 5 3 4 4 4 3 1 2 4 6 2 4 6 8 8 8 7 6
9 10 11 10 10 10 11 12 8 3 2 1 1 3 2 2 3 3 3 2 3 3 3 5 5 4 3 4 7 5 4 5 4 1 1 2 9 2 5 7 9 8 8 8 8
9 10 10 9 10 10 6 3 5 3 3 3 2 1 1 5 2 4 3 1 1 5 4 1 3 8 7 5 3 4 4 4 2 1 2 6 8 9 6 6 8 9 9 9 10
8 9 10 9 9 8 2 3 1 1 6 1 0 0 1 0 1 1 4 3 3 4 4 3 6 2 3 4 4 3 3 4 1 1 1 2 11 11 8 9 11 13 10 10 6
8 8 9 9 8 3 1 1 1 0 1 1 1 1 1 1 1 2 3 2 3 4 5 6 1 1 2 4 5 3 5 4 2 1 0 5 9 6 6 4 5 8 7 7 12
6 8 9 8 3 2 1 2 1 2 6 4 1 1 0 1 2 2 3 1 3 7 6 2 1 3 2 4 4 5 2 3 4 3 4 2 8 6 6 7 7 9 10 10 11
7 6 7 4 2 2 1 1 2 4 4 2 1 2 1 2 2 3 2 2 6 4 4 4 2 3 3 2 1 3 2 4 2 3 3 1 0 10 1 7 10 9 10 10 11
7 4 4 2 1 2 1 0 3 10 10 3 2 1 3 2 2 1 2 7 3 4 4 2 0 1 2 2 2 7 5 5 4 3 3 6 7 8 8 11 5 5 10 11 10
6 2 1 1 3 1 0 3 7 6 4 5 2 2 1 3 1 2 4 4 6 5 4 1 2 1 2 5 5 2 5 3 4 3 8 1 2 11 5 7 7 13 11 10 10
8 5 3 1 1 3 2 7 4 5 7 1 3 2 4 5 0 3 3 3 5 3 3 7 5 8 5 2 6 5 4 8 9 5 4 2 10 11 5 4 5 6 9 8 9
10 1 2 2 2 2 6 3 11 9 5 9 2 3 3 1 3 3 7 5 8 13 9 5 3 2 3 2 1 7 6 3 8 2 4 5 9 12 6 5 5 9 9 11 10
4 2 2 2 1 4 6 8 6 4 6 3 6 1 5 3 4 5 7 5 6 10 2 5 2 2 1 1 0 3 2 3 3 2 5 6 7 9 6 13 9 10 14 10 8
3 3 2 2 2 6 6 9 7 6 6 7 5 2 3 6 6 5 6 5 3 3 4 4 5 1 2 7 8 2 2 2 1 5 7 2 11 11 13 15 22 17 13 11 10
3 1 3 3 2 1 5 8 5 5 2 2 3 6 8 6 6 3 9 7 5 7 9 5 6 5 10 1 3 2 6 7 7 7 4 3 13 2 6 6 9 11 12 8 8
4 2 2 3 4 3 4 4 4 5 6 7 8 7 5 8 1 9 5 1 5 5 8 8 4 3 7 6 4 6 7 4 3 2 8 7 8 2 3 3 6 12 10 9 9
5 4 0 1 1 4 6 5 5 4 3 5 5 5 4 5 6 4 4 1 2 3 1 5 1 9 11 8 6 6 7 15 7 5 6 12 5 5 7 8 6 8 10 11 11
2 4 4 7 8 9 4 6 8 8 4 7 4 9 10 5 2 7 4 1 2 5 2 4 6 3 4 3 4 6 6 15 19 18 13 10 17 13 9 11 9 8 7 10 11
4 4 0 2 1 14 14 9 17 7 10 6 7 14 11 18 20 8 7 4 7 3 5 1 4 3 6 1 3 5 9 13 20 7 14 10 23 8 6 5 7 10 12 15 13
1 1 2 8 4 8 9 17 22 15 10 17 17 9 10 22 6 4 2 4 5 9 11 6 6 4 9 3 0 12 17 15 9 8 17 19 33 6 6 10 11 13 17 19 16
Wind_Direction
325 320 313 313 316 321 319 319 325 334 334 329 319 320 324 326 318 325 237 296 316 323 325 282 270 352 329 92 96 136 88 191 211 159 211 170 143 58 129 107 58 27 8 346 125
328 318 318 316 316 317 321 321 328 329 327 332 329 326 322 335 298 260 89 334 331 336 26 26 39 350 26 324 15 114 161 205 178 158 170 159 151 152 140 115 86 57 29 112 125
327 325 315 321 319 316 318 323 323 320 320 320 323 322 323 334 308 289 342 336 330 359 96 77 291 43 145 62 340 159 215 167 188 151 138 146 127 139 135 195 183 190 162 136 131
323 328 329 318 314 318 319 321 315 315 311 309 311 315 325 308 228 19 342 333 325 138 127 39 61 121 168 185 44 246 37 330 156 356 150 157 117 138 190 147 262 194 146 135 144
318 321 325 321 317 319 314 312 314 312 309 297 309 316 356 179 259 344 343 331 330 123 126 163 158 140 195 160 116 150 160 52 61 70 60 132 113 161 169 114 79 122 133 142 140
310 318 319 327 323 313 313 313 317 319 315 293 281 301 160 208 88 347 347 338 26 357 2 102 168 127 106 93 155 74 84 59 21 43 27 154 151 142 167 140 110 135 151 152 150
308 311 316 322 321 320 319 317 318 319 314 301 218 117 99 232 7 330 13 331 346 357 148 51 143 90 114 102 145 124 69 351 180 356 45 215 254 228 142 139 140 153 159 154 164
306 311 315 325 327 321 323 315 312 310 310 9 139 97 235 355 256 36 339 10 360 328 91 44 96 99 68 118 36 71 62 176 51 140 6 97 261 175 160 148 164 168 175 180 185
300 308 320 324 323 325 324 307 304 292 280 290 98 110 267 306 39 313 28 353 297 285 35 45 61 96 78 101 38 14 233 214 296 165 120 171 264 128 174 177 181 190 196 200 197
299 314 325 326 322 322 313 300 289 320 359 118 68 29 18 341 318 326 340 353 74 112 71 48 50 83 54 135 218 191 224 234 240 190 153 211 263 249 198 195 205 200 206 211 210
301 313 326 322 321 325 356 29 20 319 29 196 160 223 323 297 276 3 359 15 102 64 160 16 126 208 198 184 100 137 192 215 221 102 203 233 265 250 205 216 226 216 210 213 217
297 314 326 322 323 326 37 123 179 207 303 170 120 294 275 234 344 10 351 147 152 166 126 54 233 162 110 161 165 163 178 225 283 184 175 349 270 253 197 222 207 207 208 208 188
292 304 320 322 317 13 214 310 101 60 238 281 199 200 183 272 210 193 358 128 112 140 187 169 249 7 151 147 163 201 184 184 240 167 207 333 283 230 214 222 204 212 197 186 193
279 303 316 306 322 229 242 341 39 108 60 254 213 318 352 178 260 330 15 107 45 180 151 222 56 162 143 189 153 207 173 142 139 130 233 47 275 275 225 225 212 206 197 197 190
263 284 302 250 237 160 238 249 291 58 5 321 225 310 358 156 111 21 14 14 149 134 130 219 154 160 173 161 146 201 105 111 85 97 356 203 88 267 70 239 228 208 202 202 193
245 274 298 132 26 263 181 106 43 47 256 284 350 128 111 17 43 34 60 49 136 100 53 90 298 360 97 91 13 152 83 60 64 74 332 211 170 266 194 208 181 190 197 193 190
192 177 179 130 205 224 51 60 50 144 317 281 196 155 228 176 173 168 166 164 158 101 208 96 200 199 188 98 14 63 107 24 350 4 227 324 213 244 245 225 210 182 189 191 186
156 121 20 299 224 130 62 56 133 239 226 154 110 93 197 154 200 155 139 232 223 100 111 168 283 177 167 216 178 190 168 161 198 200 240 343 235 247 222 244 214 185 167 164 182
131 32 104 249 178 66 83 87 205 206 159 150 121 160 285 255 177 158 208 223 211 176 178 142 276 356 30 359 62 187 211 159 104 43 41 216 283 293 193 215 206 176 166 192 193
122 140 209 121 234 81 77 228 214 171 126 139 184 129 203 223 172 185 184 215 234 188 123 194 36 358 350 329 349 159 239 109 5 168 257 266 274 242 235 206 193 198 201 200 191
78 100 358 10 82 46 180 228 238 214 158 162 182 172 214 192 187 213 223 265 222 112 62 124 111 340 45 204 184 143 231 10 133 146 175 246 259 214 212 188 195 199 197 190 187
105 157 330 321 120 39 169 191 212 178 180 168 171 149 189 169 198 264 222 229 170 157 168 192 124 159 206 352 10 145 208 173 138 232 234 182 261 244 243 213 181 185 196 191 183
128 97 321 57 175 255 291 260 224 160 191 180 212 178 168 185 247 203 207 274 174 175 165 196 235 34 335 352 356 212 197 186 127 88 209 160 260 47 290 245 218 186 186 182 178
136 148 15 71 137 189 176 237 218 209 203 178 169 109 121 184 223 244 231 187 206 225 119 123 133 178 208 197 130 193 208 189 145 146 167 229 284 287 252 236 209 208 186 176 177
165 192 180 176 241 213 174 184 181 204 240 182 225 208 172 204 198 217 229 227 197 231 130 143 221 157 263 216 143 194 186 193 206 211 197 245 229 229 242 219 212 191 161 167 177
165 155 160 234 175 197 212 195 233 231 153 239 233 213 182 224 222 225 153 198 203 43 158 63 254 107 294 300 209 267 221 211 224 265 271 278 273 203 240 130 174 186 177 185 188
355 124 206 182 169 167 202 211 224 222 220 226 209 220 204 228 196 166 200 177 182 171 171 155 145 103 263 336 267 292 205 187 199 205 214 224 242 167 234 227 210 195 190 189 186